STARLINK H (59929 NORAD) Tracking and Keplerian Element Data

This shows tracking and keplerian element data for the satellite.

Feedback or suggestion? Click here.




ElementValue
Catalog59929
NameSTARLINK H
Epoch Orbit228
Epoch Day160.16667824
Epoch Year2024
RAAN22.3542
Inclination43.0021
Eccentricity0.0001979
Argument of Perigee279.4161
Mean Anonmoly193.6251
Mean Motion15.94170592
Decay Rate-0.01000393
L11 59929U 24106H 24160.16667824 -.01000393 30896-3 -25907-2 0 9992
L22 59929 43.0021 22.3542 0001979 279.4161 193.6251 15.94170592 2282



Live tracking and technical data element details for STARLINK H (NORAD 59929). STARLINK H can be tracked NOW for your location showing map with azimuth and elevation plus other details from your city location.







IsCatalogInMostPopularTable: catalog: 59929, numindb: 9
Update: records affected: 1



GetName: 59929 STARLINK H

Hit Count: updated at: Thu, 25 Jul 2024 00:05:55 GMT